671  
ASUS44 KMOB 251113  
RWRMOB  
REGIONAL WEATHER ROUNDUP  
NATIONAL WEATHER SERVICE MOBILE AL  
600 AM CDT SAT MAR 25 2017  
 
NOTE: "FAIR" INDICATES FEW OR NO CLOUDS BELOW 12,000 FEET WITH NO  
SIGNIFICANT WEATHER AND/OR S TO VISIBILITY
.  
 
* THESE STATIONS ARE PART OF THE UNIVERSITY OF SOUTH ALABAMA  
MESONET AND ARE NOT UNDER NWS OR FAA QUALITY CONTROL.
 
 
ALZ061>064-251200-  
COASTAL ALABAMA  
 
CITY SKY/WX TMP DP RH WIND PRES REMARKS
 
MOBILE REG APT CLOUDY 66 62 87 SE8 30.14S  
BROOKLEY FIELD CLOUDY 69 64 84 SE9 30.16R  
USA CAMPUS* N/A 66 63 88 CALM 30.14R  
DOG RIVER* N/A 68 64 88 SE3 30.94R  
 
 
CITY SKY/WX TMP DP RH WIND PRES REMARKS
 
GULF SHORES PTCLDY 66 65 94 SE10G17 30.15R  
 

 
 
ALZ051>060-251200-  
INTERIOR SOUTHWEST AND SOUTH CENTRAL ALABAMA  
 
CITY SKY/WX TMP DP RH WIND PRES REMARKS
 
GREENVILLE PTCLDY 57 51 80 SE3 30.18S  
EVERGREEN PTCLDY 53 51 93 CALM 30.17S  
ATMORE* N/A 59 59 100 E6 30.17S  
ANDALUSIA/OPP PTCLDY 58 53 84 E3 30.19R  
ANDALUSIA* N/A 57 54 88 SE5 30.18S  
FLORALA APT PTCLDY 54 51 90 CALM 30.21R  
FLORALA* N/A 59 54 82 N2 30.96R  
 

 
 
FLZ001>006-251200-  
WESTERN FLORIDA PANHANDLE  
 
CITY SKY/WX TMP DP RH WIND PRES REMARKS
 
PENSACOLA CLOUDY 68 62 81 SE12 30.15R  
NAS PENSACOLA MOCLDY 68 62 81 SE10 30.14R  
MILTON LGT RAIN 56 56 100 E6 30.16S  
WHTNG S FIELD NOT AVBL  
 
 
CITY SKY/WX TMP DP RH WIND PRES REMARKS
 
JAY* N/A 59 55 88 E8 30.17R  
DUKE FIELD PTCLDY 60 55 82 E5 30.17R  
CRESTVIEW MOCLDY 53 51 93 CALM 30.20R  
VALPARAISO MOCLDY 64 58 82 E5 30.17R  
DESTIN CLOUDY 69 66 90 SE12 30.17R  
 

 
 
MSZ076-079-251200-  
INTERIOR SOUTHEAST MISSISSIPPI  
 
CITY SKY/WX TMP DP RH WIND PRES REMARKS
 
LEAKESVILLE* NOT AVBL  
AGRICOLA* N/A 64 63 94 SE3 30.12S  
 

 
 
MARINE OBSERVATIONS  
 
STATION/POSITION TIME TEMP WIND PRES WAVE
 
AIR SEA DIR/SP/G HT/PER  
(UTC) (F) (DEG/KT/KT) (MB) (FT/S)  
PASCAGOULA 1048 70 150/ 12/ 16 1019.6F  
PETIT BOIS ISLND 1048 69 150/ 10/ 13 1020.7S  
GRAND BAY 0930 70 150/ 12 1021.0R  
KATRINA CUT 1000 160/ 12 1020.3  
CEDAR POINT 1030 69 160/ 9 1020.3R  
E DAUPHIN ISLAND 1000 69 150/ 10/ 12 1020.0R  
MIDDLE BAY LIGHT 1000 69 140/ 12 1020.6  
USCG MOBILE BAY 1048 67 69 150/ 5/ 9 1021.4R  
STATE DOCKS 1048 66 65 1020.6R  
MEAHER PARK 1030 64 110/ 5 1020.0F  
WEEKS BAY 0945 64 N/A  
FORT MORGAN 1048 69 160/ 10/ 12 N/A  
12 S ORANGE BCH 0950 70 69 130/ 10/ 12 1020.1R 4/ 7  
PENSACOLA BAY 1048 68 69 150/ 2/ 5 1021.4R  
64 S DAUPHIN ISL 1050 72 73 140/ 14/ 17 1020.1R 6/ 7  
67 S FORT MORGAN 1030 70 150/ 16 1020.3R  
 

 
 
SELECTED LOCATIONS ACROSS THE REGION  
 
CITY SKY/WX TMP DP RH WIND PRES REMARKS
 
NEW ORLEANS PTCLDY 71 67 87 SE14 30.07R  
GULFPORT CLOUDY 71 67 87 S7 30.11R  
PASCAGOULA AP LGT RAIN 69 63 81 SE8 30.12S  
PASCAGOULA* NOT AVBL  
HATTIESBURG PTCLDY 64 62 93 SE8 30.08F  
LAUREL CLOUDY 64 59 82 SE9 30.09F  
MERIDIAN PTCLDY 65 61 87 S15 30.07F  
JACKSON CLOUDY 69 62 78 S14 30.01R THUNDER  
MONTGOMERY CLEAR 57 51 80 E9 30.20S  
TROY CLEAR 58 54 86 CALM 30.22R  
ASHFORD* N/A 57 54 88 SE5 30.18S  
DOTHAN MOCLDY 59 55 87 E6 30.24R  
PANAMA CITY PTCLDY 57 55 93 NE6 30.19R  
 

 
 
 
 
CLICK HERE TO GO TO PREVIOUS BULLETINS.

The Nexlab AL Page
The Nexlab FL Page
The Nexlab MS Page Main Text Page